Torna al catalogo

SL-8 R/B

AttivoLEO
NORAD 7434·ROCKET BODY·🇷🇺 Russia

Lanciato Sep 11, 1974 da Plesetsk Cosmodrome

Loading…

Prossimi Passaggi (prossime 24 ore)

TLE

AggiornatoSource: Space-Track

Epoca: Sep 14, 2026, 14:43 UTC

1 07434U 74071B   26257.61357470  .00000160  00000-0  61120-4 0  9993
2 07434  74.0451 128.4258 0021310 283.5198  76.3582 14.38266057721434

Traccia SL-8 R/B in tempo reale con AllMySat

Download on the App Store